When you browse on this site, cookies collect data to enhance your experience and personalize the content and advertising you see.
Visit our Privacy Policy to learn more. By continuing to use the site, you agree to this use of cookies and data.

Meteo pe oră la Baia-Sprie

Astăzi, 4 August, Marţi

Timp Temperatura Precipitaţii Vânt Presiune Umiditate
00:00 +17°C° 0 mm 2 m/s 707 mmHg 63%
01:00 +17°C° 0 mm 2 m/s 707 mmHg 64%
02:00 +17°C° 0 mm 2 m/s 707 mmHg 65%
03:00 +17°C° 0 mm 2 m/s 707 mmHg 65%
04:00 +17°C° 0 mm 2 m/s 707 mmHg 65%
05:00 +16°C° 0 mm 2 m/s 706 mmHg 65%
06:00 +18°C° 0 mm 2 m/s 706 mmHg 65%
07:00 +19°C° 0 mm 3 m/s 707 mmHg 64%
08:00 +21°C° 0 mm 3 m/s 707 mmHg 62%
09:00 +22°C° 0 mm 3 m/s 707 mmHg 58%
10:00 +25°C° 0 mm 4 m/s 707 mmHg 55%
11:00 +26°C° 0 mm 4 m/s 707 mmHg 51%
12:00 +27°C° 0 mm 4 m/s 707 mmHg 51%
13:00 +28°C° 0 mm 4 m/s 708 mmHg 50%
14:00 +28°C° 0 mm 3 m/s 708 mmHg 49%
15:00 +28°C° 0.1 mm 3 m/s 708 mmHg 52%
16:00 +28°C° 0.1 mm 2 m/s 708 mmHg 54%
17:00 +28°C° 0.1 mm 1 m/s 708 mmHg 57%
18:00 +26°C° 0 mm 1 m/s 708 mmHg 62%
19:00 +24°C° 0 mm 1 m/s 707 mmHg 68%
20:00 +22°C° 0 mm 1 m/s 707 mmHg 73%
21:00 +21°C° 0.4 mm 1 m/s 707 mmHg 76%
22:00 +20°C° 0.4 mm 1 m/s 708 mmHg 78%
23:00 +19°C° 0.4 mm 1 m/s 708 mmHg 81%

Mâine, 5 August, Miercuri

Timp Temperatura Precipitaţii Vânt Presiune Umiditate
00:00 +19°C° 0.7 mm 1 m/s 708 mmHg 82%
01:00 +19°C° 0.7 mm 1 m/s 708 mmHg 83%
02:00 +19°C° 0.7 mm 1 m/s 708 mmHg 83%
03:00 +18°C° 0.1 mm 1 m/s 708 mmHg 84%
04:00 +16°C° 0.1 mm 0 m/s 708 mmHg 84%
05:00 +16°C° 0.1 mm 0 m/s 708 mmHg 84%
06:00 +17°C° 0 mm 0 m/s 709 mmHg 82%
07:00 +18°C° 0 mm 0 m/s 709 mmHg 80%
08:00 +22°C° 0 mm 1 m/s 710 mmHg 78%
09:00 +23°C° 0 mm 1 m/s 710 mmHg 72%
10:00 +25°C° 0 mm 1 m/s 710 mmHg 67%
11:00 +27°C° 0 mm 1 m/s 711 mmHg 62%
12:00 +27°C° 0.2 mm 1 m/s 711 mmHg 62%
13:00 +28°C° 0.2 mm 1 m/s 711 mmHg 63%
14:00 +28°C° 0.2 mm 1 m/s 711 mmHg 64%
15:00 +28°C° 1 mm 1 m/s 711 mmHg 67%
16:00 +27°C° 1 mm 1 m/s 711 mmHg 69%
17:00 +27°C° 1 mm 1 m/s 711 mmHg 72%
18:00 +25°C° 0.3 mm 2 m/s 711 mmHg 76%
19:00 +23°C° 0.3 mm 2 m/s 711 mmHg 79%
20:00 +20°C° 0.3 mm 2 m/s 711 mmHg 83%
21:00 +19°C° 0 mm 2 m/s 711 mmHg 83%
22:00 +18°C° 0 mm 2 m/s 712 mmHg 84%
23:00 +18°C° 0 mm 2 m/s 712 mmHg 84%

Poimâine, 6 August, Joi

Timp Temperatura Precipitaţii Vânt Presiune Umiditate
00:00 +17°C° 0 mm 2 m/s 712 mmHg 83%
01:00 +17°C° 0 mm 2 m/s 712 mmHg 81%
02:00 +16°C° 0 mm 2 m/s 712 mmHg 79%
03:00 +16°C° 0 mm 2 m/s 712 mmHg 77%
04:00 +16°C° 0 mm 2 m/s 712 mmHg 75%
05:00 +15°C° 0 mm 2 m/s 712 mmHg 73%
06:00 +17°C° 0 mm 2 m/s 713 mmHg 70%
07:00 +20°C° 0 mm 1 m/s 713 mmHg 68%
08:00 +22°C° 0 mm 1 m/s 714 mmHg 66%
09:00 +23°C° 0 mm 1 m/s 714 mmHg 60%
10:00 +25°C° 0 mm 2 m/s 715 mmHg 53%
11:00 +27°C° 0 mm 2 m/s 715 mmHg 47%
12:00 +28°C° 0 mm 2 m/s 715 mmHg 46%
13:00 +29°C° 0 mm 2 m/s 715 mmHg 45%
14:00 +29°C° 0 mm 2 m/s 715 mmHg 44%
15:00 +29°C° 0 mm 2 m/s 715 mmHg 48%
16:00 +28°C° 0 mm 2 m/s 715 mmHg 53%
17:00 +27°C° 0 mm 2 m/s 715 mmHg 58%
18:00 +25°C° 0 mm 2 m/s 714 mmHg 60%
19:00 +24°C° 0 mm 2 m/s 714 mmHg 63%
20:00 +21°C° 0 mm 3 m/s 714 mmHg 66%
21:00 +20°C° 0 mm 2 m/s 715 mmHg 67%
22:00 +19°C° 0 mm 2 m/s 715 mmHg 68%
23:00 +18°C° 0 mm 2 m/s 715 mmHg 69%

7 August, Vineri

Timp Temperatura Precipitaţii Vânt Presiune Umiditate
00:00 +18°C° 0 mm 2 m/s 715 mmHg 71%
01:00 +17°C° 0 mm 2 m/s 715 mmHg 73%
02:00 +17°C° 0 mm 2 m/s 715 mmHg 75%
03:00 +18°C° 0 mm 1 m/s 715 mmHg 76%
04:00 +16°C° 0 mm 1 m/s 715 mmHg 77%
05:00 +16°C° 0 mm 1 m/s 715 mmHg 78%
06:00 +19°C° 0 mm 1 m/s 715 mmHg 76%
07:00 +20°C° 0 mm 1 m/s 716 mmHg 73%
08:00 +22°C° 0 mm 1 m/s 716 mmHg 70%
09:00 +23°C° 0 mm 1 m/s 716 mmHg 64%
10:00 +25°C° 0 mm 1 m/s 716 mmHg 58%
11:00 +27°C° 0 mm 2 m/s 717 mmHg 53%
12:00 +27°C° 0 mm 2 m/s 716 mmHg 51%
13:00 +28°C° 0 mm 2 m/s 716 mmHg 49%
14:00 +29°C° 0 mm 2 m/s 716 mmHg 48%
15:00 +28°C° 0 mm 2 m/s 716 mmHg 50%
16:00 +28°C° 0 mm 2 m/s 716 mmHg 53%
17:00 +28°C° 0 mm 2 m/s 715 mmHg 56%
18:00 +26°C° 0 mm 2 m/s 715 mmHg 61%
19:00 +24°C° 0 mm 2 m/s 715 mmHg 66%
20:00 +21°C° 0 mm 2 m/s 715 mmHg 71%
21:00 +20°C° 0 mm 2 m/s 715 mmHg 73%
22:00 +19°C° 0 mm 2 m/s 715 mmHg 75%
23:00 +18°C° 0 mm 2 m/s 715 mmHg 77%

8 August, Sâmbătă

Timp Temperatura Precipitaţii Vânt Presiune Umiditate
00:00 +18°C° 0 mm 2 m/s 715 mmHg 78%
01:00 +18°C° 0 mm 1 m/s 714 mmHg 79%
02:00 +18°C° 0 mm 1 m/s 714 mmHg 80%
03:00 +18°C° 0 mm 1 m/s 714 mmHg 80%
04:00 +18°C° 0 mm 1 m/s 714 mmHg 80%
05:00 +16°C° 0 mm 1 m/s 714 mmHg 81%
06:00 +19°C° 0 mm 1 m/s 714 mmHg 78%
07:00 +21°C° 0 mm 1 m/s 714 mmHg 75%
08:00 +22°C° 0 mm 1 m/s 714 mmHg 71%
09:00 +24°C° 0 mm 1 m/s 714 mmHg 66%
10:00 +25°C° 0 mm 1 m/s 714 mmHg 61%
11:00 +25°C° 0 mm 0 m/s 714 mmHg 56%
12:00 +28°C° 0.1 mm 1 m/s 714 mmHg 54%
13:00 +28°C° 0.1 mm 1 m/s 714 mmHg 53%
14:00 +29°C° 0.1 mm 1 m/s 714 mmHg 51%
15:00 +28°C° 0.3 mm 1 m/s 713 mmHg 54%
16:00 +28°C° 0.3 mm 1 m/s 713 mmHg 57%
17:00 +27°C° 0.3 mm 1 m/s 713 mmHg 60%
18:00 +25°C° 0.2 mm 1 m/s 712 mmHg 66%
19:00 +23°C° 0.2 mm 1 m/s 712 mmHg 72%
20:00 +21°C° 0.2 mm 1 m/s 712 mmHg 78%
21:00 +21°C° 0.1 mm 1 m/s 712 mmHg 81%
22:00 +20°C° 0.1 mm 1 m/s 712 mmHg 83%
23:00 +19°C° 0.1 mm 1 m/s 712 mmHg 86%

9 August, Duminică

Timp Temperatura Precipitaţii Vânt Presiune Umiditate
00:00 +19°C° 0.2 mm 1 m/s 712 mmHg 86%
01:00 +18°C° 0.2 mm 1 m/s 711 mmHg 87%
02:00 +18°C° 0.2 mm 1 m/s 711 mmHg 87%
03:00 +16°C° 0 mm 1 m/s 711 mmHg 87%
04:00 +16°C° 0 mm 1 m/s 711 mmHg 86%
05:00 +16°C° 0 mm 1 m/s 710 mmHg 86%
06:00 +18°C° 0 mm 1 m/s 711 mmHg 82%
07:00 +20°C° 0 mm 1 m/s 711 mmHg 79%
08:00 +21°C° 0 mm 1 m/s 711 mmHg 76%
09:00 +23°C° 0 mm 1 m/s 711 mmHg 70%
10:00 +24°C° 0 mm 1 m/s 712 mmHg 64%
11:00 +26°C° 0 mm 1 m/s 712 mmHg 58%
12:00 +26°C° 0.1 mm 1 m/s 711 mmHg 57%
13:00 +27°C° 0.1 mm 1 m/s 711 mmHg 56%
14:00 +27°C° 0.1 mm 1 m/s 711 mmHg 56%
15:00 +27°C° 0.8 mm 1 m/s 711 mmHg 58%
16:00 +26°C° 0.8 mm 1 m/s 710 mmHg 61%
17:00 +26°C° 0.8 mm 1 m/s 710 mmHg 64%
18:00 +24°C° 0.5 mm 1 m/s 710 mmHg 69%
19:00 +23°C° 0.5 mm 1 m/s 710 mmHg 74%
20:00 +21°C° 0.5 mm 1 m/s 710 mmHg 79%
21:00 +20°C° 0 mm 1 m/s 710 mmHg 80%
22:00 +20°C° 0 mm 1 m/s 710 mmHg 81%
23:00 +19°C° 0 mm 1 m/s 710 mmHg 83%
Arată mai mult